Weather in Cardiff

United Kingdom     51˚29′03″N   3˚10′36″W
temp.,
°C
wind,
m/s
gust,
m/s
humid.,
%
clouds,
%
prec.,
mm/h
press.,
hPa
HPBL,
m
29 november, sun
sun2900:00+7˚ne4696100 0.0 1022154
03:00+7˚ne4695100 0.0 1023163
06:00+7˚ne3593100 0.0 1024130
09:00+7˚ene349299 0.0 1025114
12:00+9˚e348686 0.0 1026249
15:00+8˚e119080 0.0 102652
18:00+6˚nw009177 0.0 102727
21:00+6˚wnw118927 0.0 102726
30 november, mon
mon3000:00+6˚w128928 0.0 102828
03:00+6˚wnw239198 0.0 102741
06:00+6˚wnw349280 0.0 102762
09:00+8˚wnw399496 0.0 1027355
12:00+10˚w6118898 0.0 1026643
15:00+10˚w51291100 0.0 1025636
18:00+9˚w71491100 0.5 1024623
21:00+9˚wnw51394100 0.4 1024593
1 december, tue
tue100:00+8˚nw3790100 0.4 1025195
03:00+5˚nnw2380100 0.0 102659
06:00+3˚nnw237993 0.0 102755
09:00+4˚nnw2278100 0.0 102837
12:00+7˚n1368100 0.0 1028310
15:00+7˚nw127485 0.0 102761
18:00+4˚nnw228079 0.0 102731
21:00+3˚n128059 0.0 102729
2 december, wed
wed200:00+3˚nw117869 0.0 102527
03:00+3˚nw117774 0.0 102329
06:00+3˚wnw228083 0.0 102138
09:00+4˚wnw228985 0.0 102037
12:00+8˚w258776 0.0 1019320
15:00+8˚nw488967 0.1 1017497
18:00+3˚wnw349055 0.1 1017106
21:00+3˚w238553 0.0 101663
3 december, thu
thu300:00+3˚nw128277 0.0 101350
03:00+5˚ssw2281100 0.1 1009110
06:00+6˚ssw61089100 0.7 1004589
09:00+6˚ssw81290100 2.3 998777
12:00+6˚ssw81291100 5.8 992856
15:00+7˚s5992100 1.9 985585
18:00+6˚s4891100 4.1 979310
21:00+7˚sse588799 0.6 974465